TimeEST,TemperatureF,Dew PointF,Humidity,Sea Level PressureIn,VisibilityMPH,Wind Direction,Wind SpeedMPH,Gust SpeedMPH,PrecipitationIn,Events,Conditions,WindDirDegrees,DateUTC
12:15 AM,37.4,14.0,38,30.08,7.0,NW,12.7,23.0,N/A,,Clear,310,2013-02-17 05:15:00
12:35 AM,37.4,15.8,41,30.09,7.0,West,12.7,23.0,N/A,,Clear,280,2013-02-17 05:35:00
12:55 AM,37.4,15.8,41,30.10,7.0,WNW,13.8,21.9,N/A,,Clear,300,2013-02-17 05:55:00
1:15 AM,37.4,14.0,38,30.11,7.0,WNW,16.1,25.3,N/A,,Clear,290,2013-02-17 06:15:00
1:35 AM,35.6,14.0,41,30.11,7.0,WNW,16.1,24.2,N/A,,Clear,300,2013-02-17 06:35:00
1:55 AM,35.6,15.8,44,30.11,10.0,WNW,13.8,19.6,N/A,,Clear,300,2013-02-17 06:55:00
2:15 AM,35.6,14.0,41,30.11,7.0,WNW,15.0,23.0,N/A,,Clear,290,2013-02-17 07:15:00
2:35 AM,35.6,14.0,41,30.11,10.0,WNW,11.5,24.2,N/A,,Clear,300,2013-02-17 07:35:00
2:55 AM,35.6,15.8,44,30.11,7.0,WNW,11.5,19.6,N/A,,Clear,300,2013-02-17 07:55:00
3:15 AM,35.6,15.8,44,30.12,10.0,WNW,13.8,19.6,N/A,,Clear,290,2013-02-17 08:15:00
3:35 AM,33.8,17.6,52,30.12,10.0,West,11.5,18.4,N/A,,Clear,280,2013-02-17 08:35:00
3:55 AM,33.8,17.6,52,30.12,10.0,WNW,12.7,20.7,N/A,,Clear,290,2013-02-17 08:55:00
4:15 AM,33.8,17.6,52,30.13,10.0,WNW,9.2,17.3,N/A,,Clear,300,2013-02-17 09:15:00
4:35 AM,33.8,17.6,52,30.13,10.0,WNW,12.7,19.6,N/A,,Clear,290,2013-02-17 09:35:00
4:55 AM,33.8,17.6,52,30.14,10.0,WNW,15.0,20.7,N/A,,Clear,300,2013-02-17 09:55:00
5:15 AM,33.8,17.6,52,30.16,7.0,WNW,11.5,17.3,N/A,,Clear,290,2013-02-17 10:15:00
5:35 AM,32.0,17.6,55,30.16,10.0,WNW,8.1,17.3,N/A,,Clear,300,2013-02-17 10:35:00
5:55 AM,32.0,17.6,55,30.17,10.0,WNW,10.4,-,N/A,,Clear,290,2013-02-17 10:55:00
6:15 AM,32.0,17.6,55,30.18,10.0,WNW,11.5,16.1,N/A,,Clear,300,2013-02-17 11:15:00
6:35 AM,32.0,17.6,55,30.19,10.0,WNW,11.5,-,N/A,,Clear,300,2013-02-17 11:35:00
6:55 AM,32.0,17.6,55,30.21,10.0,WNW,8.1,17.3,N/A,,Clear,290,2013-02-17 11:55:00
7:15 AM,32.0,17.6,55,30.21,7.0,West,10.4,-,N/A,,Clear,280,2013-02-17 12:15:00
7:35 AM,32.0,17.6,55,30.23,10.0,West,9.2,-,N/A,,Clear,280,2013-02-17 12:35:00
7:55 AM,32.0,17.6,55,30.23,10.0,WNW,11.5,16.1,N/A,,Clear,290,2013-02-17 12:55:00
8:15 AM,33.8,15.8,48,30.24,10.0,WNW,12.7,-,N/A,,Clear,300,2013-02-17 13:15:00
8:55 AM,35.6,14.0,41,30.25,10.0,WNW,12.7,23.0,N/A,,Clear,300,2013-02-17 13:55:00
9:15 AM,35.6,14.0,41,30.26,10.0,WNW,15.0,19.6,N/A,,Clear,290,2013-02-17 14:15:00
9:55 AM,37.4,12.2,36,30.26,10.0,NW,11.5,19.6,N/A,,Clear,310,2013-02-17 14:55:00
10:15 AM,39.2,12.2,33,30.26,10.0,NW,15.0,19.6,N/A,,Clear,310,2013-02-17 15:15:00
10:35 AM,41.0,10.4,29,30.26,10.0,NW,17.3,24.2,N/A,,Clear,310,2013-02-17 15:35:00
10:55 AM,41.0,10.4,29,30.26,10.0,WNW,11.5,-,N/A,,Clear,300,2013-02-17 15:55:00
11:15 AM,42.8,10.4,27,30.26,10.0,WNW,13.8,20.7,N/A,,Clear,290,2013-02-17 16:15:00
11:35 AM,42.8,10.4,27,30.26,10.0,NW,13.8,21.9,N/A,,Clear,310,2013-02-17 16:35:00
11:55 AM,42.8,8.6,25,30.25,10.0,WNW,16.1,21.9,N/A,,Clear,290,2013-02-17 16:55:00
12:15 PM,44.6,10.4,25,30.25,10.0,WNW,15.0,21.9,N/A,,Clear,290,2013-02-17 17:15:00
12:35 PM,44.6,8.6,23,30.25,10.0,West,17.3,25.3,N/A,,Clear,280,2013-02-17 17:35:00
12:55 PM,46.4,10.4,23,30.24,10.0,WNW,13.8,20.7,N/A,,Clear,290,2013-02-17 17:55:00
1:15 PM,46.4,10.4,23,30.23,10.0,WNW,16.1,21.9,N/A,,Clear,290,2013-02-17 18:15:00
1:35 PM,46.4,8.6,22,30.23,10.0,West,19.6,27.6,N/A,,Clear,280,2013-02-17 18:35:00
1:55 PM,46.4,5.0,18,30.22,10.0,WNW,15.0,26.5,N/A,,Clear,300,2013-02-17 18:55:00
2:15 PM,48.2,8.6,20,30.22,10.0,WNW,15.0,24.2,N/A,,Clear,290,2013-02-17 19:15:00
2:35 PM,48.2,6.8,19,30.22,10.0,WNW,15.0,23.0,N/A,,Clear,300,2013-02-17 19:35:00
2:55 PM,50.0,8.6,19,30.21,10.0,WNW,17.3,25.3,N/A,,Clear,290,2013-02-17 19:55:00
3:15 PM,48.2,5.0,17,30.21,10.0,WNW,13.8,20.7,N/A,,Clear,300,2013-02-17 20:15:00
3:35 PM,50.0,8.6,19,30.21,10.0,WNW,18.4,23.0,N/A,,Clear,290,2013-02-17 20:35:00
3:55 PM,50.0,6.8,17,30.21,10.0,NW,16.1,23.0,N/A,,Clear,310,2013-02-17 20:55:00
4:15 PM,50.0,8.6,19,30.22,10.0,WNW,13.8,20.7,N/A,,Clear,300,2013-02-17 21:15:00
4:35 PM,48.2,8.6,20,30.22,10.0,WNW,11.5,-,N/A,,Clear,290,2013-02-17 21:35:00
4:55 PM,48.2,10.4,22,30.22,10.0,WNW,9.2,-,N/A,,Clear,290,2013-02-17 21:55:00
5:15 PM,46.4,8.6,22,30.23,10.0,West,9.2,-,N/A,,Clear,280,2013-02-17 22:15:00
5:35 PM,46.4,10.4,23,30.23,10.0,West,10.4,-,N/A,,Clear,260,2013-02-17 22:35:00
5:55 PM,44.6,12.2,27,30.24,10.0,West,13.8,17.3,N/A,,Clear,270,2013-02-17 22:55:00
6:15 PM,44.6,12.2,27,30.25,10.0,West,8.1,-,N/A,,Clear,270,2013-02-17 23:15:00
6:35 PM,42.8,14.0,31,30.26,10.0,West,3.5,-,N/A,,Clear,260,2013-02-17 23:35:00
6:55 PM,37.4,17.6,45,30.26,10.0,WSW,4.6,-,N/A,,Clear,240,2013-02-17 23:55:00
7:15 PM,41.0,14.0,33,30.27,10.0,West,5.8,-,N/A,,Clear,270,2013-02-18 00:15:00
7:35 PM,37.4,19.4,48,30.28,10.0,WSW,5.8,-,N/A,,Clear,240,2013-02-18 00:35:00
7:55 PM,37.4,19.4,48,30.29,10.0,WSW,4.6,-,N/A,,Clear,240,2013-02-18 00:55:00
8:15 PM,37.4,21.2,52,30.30,10.0,SW,3.5,-,N/A,,Clear,230,2013-02-18 01:15:00
8:35 PM,37.4,21.2,52,30.30,10.0,WSW,4.6,-,N/A,,Clear,240,2013-02-18 01:35:00
8:55 PM,35.6,23.0,60,30.31,10.0,SW,3.5,-,N/A,,Clear,220,2013-02-18 01:55:00
9:15 PM,35.6,23.0,60,30.31,10.0,Calm,Calm,-,N/A,,Clear,0,2013-02-18 02:15:00
9:35 PM,35.6,23.0,60,30.32,10.0,Calm,Calm,-,N/A,,Clear,0,2013-02-18 02:35:00
9:55 PM,33.8,24.8,70,30.32,10.0,SW,3.5,-,N/A,,Clear,220,2013-02-18 02:55:00
10:15 PM,33.8,26.6,75,30.33,7.0,SW,3.5,-,N/A,,Clear,220,2013-02-18 03:15:00
10:35 PM,33.8,26.6,75,30.34,7.0,SW,3.5,-,N/A,,Clear,230,2013-02-18 03:35:00
10:55 PM,32.0,26.6,80,30.34,10.0,Calm,Calm,-,N/A,,Clear,0,2013-02-18 03:55:00
11:15 PM,32.0,26.6,80,30.33,10.0,Calm,Calm,-,N/A,,Clear,0,2013-02-18 04:15:00
11:35 PM,32.0,26.6,80,30.34,7.0,Calm,Calm,-,N/A,,Clear,0,2013-02-18 04:35:00
11:55 PM,32.0,26.6,80,30.34,10.0,SSW,3.5,-,N/A,,Clear,210,2013-02-18 04:55:00